Location: *
(52.2090°N, 4.1550°W)
Time: 14:03:26
(UTC+00:00)

Cosmos 2278 Rocket - Pass Details

Date: 19 July 2019
Orbit: 840 x 847 km, 71.0° (Epoch: 22 August)

Event Time Altitude Azimuth Distance (km) Brightness Sun altitude
Rises 21:18:00 0° 329° (NNW) 3,414 7.4 -6.7°
Reaches altitude 10° 21:20:43 10° 340° (NNW) 2,477 6.0 -6.9°
Maximum altitude 21:25:48 32° 43° (NE) 1,412 3.5 -7.5°
Drops below altitude 10° 21:30:52 10° 106° (ESE) 2,470 4.1 -8.0°
Enters shadow 21:31:56 - 111° (ESE) 2,831 4.4 -8.1°
